Location: Devils Dance Floor
(37.7394°N, 119.7360°W)
Time: 02:59:53
(UTC+00:00)

Daily predictions for brighter satellites

Satellite Brightness Start Highest point End
(mag) Time Altitude Azimuth Time Altitude Azimuth Time Altitude Azimuth
Cosmos 1782 2.7 03:32:35 10° S 03:36:19 62° E 03:40:05 10° NNE
Meteor 2-21 4.5 03:32:52 10° S 03:39:00 69° E 03:45:07 10° NNE
SL-24 R/B - RUBIN 2 4.4 03:33:29 10° SSW 03:39:24 83° ESE 03:45:59 10° NNE
Cosmos 2237 Rocket 3.6 03:34:16 10° SW 03:39:41 45° WNW 03:45:08 10° N
PSLV R/B 4.4 03:37:37 10° SE 03:41:06 37° ENE 03:44:34 10° N
OAO 2 Rocket 3.7 03:39:03 10° W 03:44:15 58° S 03:49:24 10° ESE
USA 290 3.7 03:41:53 10° N 03:44:32 23° ENE 03:47:09 10° ESE
Okean O Rocket 2.0 03:40:26 10° SSE 03:44:41 48° ENE 03:48:57 10° N
Cosmos-2242 3.0 03:41:01 10° S 03:45:13 86° W 03:49:28 10° N
Meteor 2-21 Rocket 4.5 03:49:16 10° S 03:55:25 67° E 04:01:32 10° NNE
Cosmos 1943 4.5 03:51:27 10° SE 03:55:27 20° E 03:59:26 10° NE
DELTA 2 DEB (DPAF) 4.0 03:54:34 10° NNE 03:58:49 86° WNW 04:03:02 10° SSW
Cosmos 1072 Rocket 4.4 03:53:58 10° N 04:00:08 78° E 04:06:13 10° S
Cosmos 2344 4.4 03:54:05 10° NNW 04:02:55 70° NE 04:14:20 13° SE
Cosmos 44 4.2 04:00:24 10° NNW 04:04:44 34° NE 04:08:06 14° ESE
SL-8 R/B 3.6 04:00:18 10° SW 04:05:02 87° SSE 04:09:49 10° ENE
Cosmos 1943 Rocket 2.6 04:01:20 10° NNW 04:06:56 65° WSW 04:12:28 10° S
Cosmos 2221 2.7 04:13:28 10° S 04:17:39 53° E 04:21:52 10° NNE
ERS-1 Rocket 4.2 04:15:21 15° ESE 04:18:15 25° ENE 04:22:18 10° NNE
Lacrosse 5 rocket 4.4 04:16:35 10° WNW 04:19:25 17° NNW 04:22:13 10° N
Cosmos 494 Rocket 4.3 04:15:01 10° S 04:19:46 41° ESE 04:24:32 10° NNE
USA 186 3.8 04:17:12 10° SSW 04:19:53 26° W 04:22:39 10° NW
CZ-4C R/B 3.2 04:19:36 10° NNE 04:23:26 71° ESE 04:27:24 10° S
Okean-O 2.6 04:21:15 16° SSE 04:24:41 68° ENE 04:29:04 10° N
CZ-4B R/B 4.2 04:19:41 10° S 04:24:46 43° W 04:29:50 10° NNW
Cosmos 2278 Rocket 4.2 04:22:44 10° NW 04:27:09 24° W 04:31:35 10° SSW
CARTOSAT-1 4.5 04:24:29 10° S 04:28:34 46° W 04:32:41 10° NNW
ATLAS 3B R/B 3.0 04:22:31 10° NNW 04:30:26 84° ENE 04:36:15 19° SE
Cosmos 1464 Rocket 4.4 04:24:31 10° NNW 04:30:43 65° W 04:36:49 10° S
Cosmos 921 Rocket 3.0 04:31:44 10° SSW 04:36:11 87° ESE 04:40:42 10° NNE
Cosmos 1378 4.4 04:35:12 10° SSW 04:38:13 34° W 04:41:15 10° NNW
Cosmos 2297 3.9 04:32:58 10° NNW 04:38:39 59° ENE 04:41:57 25° SE
MetOp-B 4.2 04:35:30 21° SSE 04:39:02 65° ENE 04:44:20 10° N
Cosmos 1371 Rocket 4.0 04:34:20 10° NNW 04:39:42 76° ENE 04:43:01 24° SSE
Lacrosse 5 2.0 04:36:56 10° NW 04:42:01 72° SW 04:44:52 26° SSE
Cosmos 1420 Rocket 4.1 04:42:42 10° NNW 04:48:01 75° WSW 04:51:27 22° S
MOS 1 4.3 04:44:24 18° S 04:48:42 83° WSW 04:54:23 10° NNW
Terra 2.3 04:50:17 30° ESE 04:51:59 42° ENE 04:56:26 10° N
Cosmos 1743 2.5 04:48:59 10° N 04:52:34 67° E 04:53:28 46° SE
SPOT 3 Rocket 4.3 04:53:09 28° ESE 04:55:00 36° ENE 04:59:41 10° N
Cosmos 2279 Rocket 4.4 04:53:00 10° N 04:58:55 46° ENE 05:01:26 31° SE
SL-16 R/B 3.9 04:54:18 10° SW 04:59:23 33° WNW 05:04:30 10° N
GEOS 3 Rocket 3.5 04:55:56 10° NE 05:01:02 61° ESE 05:06:03 10° SSW
Cosmos 1603 3.9 04:59:26 29° SSE 05:01:56 47° ESE 05:07:22 10° NE
Spot 2 Rocket 3.8 05:00:14 34° ESE 05:01:58 49° ENE 05:06:49 10° N
IRS-1A Rocket 4.2 04:59:19 28° SSE 05:02:28 86° ENE 05:08:04 10° NNW
SPOT 5 2.8 05:00:20 28° S 05:02:45 73° WSW 05:07:14 10° NNW
Meteor 2-6 Rocket 4.2 04:58:56 14° S 05:03:55 84° W 05:09:26 10° N
Cosmos 1634 Rocket 3.9 04:58:26 10° N 05:04:44 80° E 05:08:07 29° SSE
Resurs 01 Rocket 4.1 05:02:53 10° SW 05:05:48 17° W 05:08:42 10° NW
ISS -1.4 05:04:58 10° NNW 05:07:11 16° NNE 05:08:29 14° NE
Cosmos 2263 4.4 05:03:34 10° NNW 05:09:11 58° ENE 05:11:17 37° SE
Cosmos 1726 2.9 05:07:01 10° N 05:09:12 31° NE 05:09:12 31° NE
USA 276 3.9 05:08:48 10° NNW 05:09:54 19° N 05:09:54 19° N
Cosmos 2369 Rocket 2.1 05:08:33 10° NNW 05:14:11 88° ENE 05:16:18 40° SSE
Okean 3 Rocket 3.4 05:12:01 10° N 05:16:23 74° E 05:17:12 56° SSE
Cosmos 1842 Rocket 3.7 05:17:14 34° SSW 05:19:07 74° W 05:23:33 10° N
Okean O Rocket 4.3 05:18:54 10° WSW 05:21:11 14° W 05:23:27 10° WNW
Ariane Rocket 2.9 05:23:15 49° SSE 05:24:39 80° ENE 05:29:44 10° N
ARGOS Delta rocket 4.1 05:25:55 38° S 05:27:51 67° W 05:32:44 10° NNW
OAO 2 Rocket 4.5 05:24:03 10° W 05:28:27 28° SSW 05:28:27 28° SSW
Cosmos 1656 Rocket 4.2 05:25:21 10° NNW 05:30:37 49° WSW 05:32:42 33° SSW
Landsat 4 3.8 05:32:03 60° W 05:32:03 60° W 05:35:22 10° NNW
USA 229 DEB 4.0 05:24:52 10° NNW 05:32:32 88° ENE 05:35:58 39° SSE
USA 229 4.0 05:24:58 10° NNW 05:32:39 87° ENE 05:36:04 40° SE
Meteor 1-27 Rocket 3.7 05:33:37 53° SE 05:34:35 62° E 05:40:01 10° NNE
Cosmos 1340 Rocket 3.9 05:36:22 34° NE 05:36:22 34° NE 05:39:04 10° NNE
Spot 1 3.8 05:34:37 10° NNE 05:38:43 89° E 05:38:48 86° S
Cosmos 1943 4.0 05:33:29 10° SW 05:39:00 51° WNW 05:44:32 10° NNE
Cosmos 1452 Rocket 3.4 05:34:23 10° NNW 05:39:38 74° ENE 05:40:24 62° SE
Cosmos 2084 4.4 05:37:30 10° NW 05:40:39 31° WSW 05:40:39 31° WSW
Cosmos 2180 Rocket 4.4 05:36:08 10° N 05:42:20 75° E 05:43:51 52° SSE
Cosmos 2142 Rocket 4.5 05:40:00 10° N 05:46:22 85° W 05:48:23 47° S
ARIANE 5 R/B 4.4 05:51:42 20° ENE 05:51:42 20° ENE 05:54:23 10° NNE
Sich 1 3.4 05:48:34 10° N 05:52:22 56° NE 05:52:22 56° NE
Meteor 2-4 Rocket 4.4 05:56:10 41° E 05:56:10 41° E 06:01:30 10° NNE
ERS-1 Rocket 4.2 05:55:17 28° SW 05:56:47 34° W 06:01:21 10° NNW
Meteor 2-9 Rocket 4.1 05:55:11 10° N 06:01:03 84° E 06:01:51 68° SSE
FALCON 9 R/B 3.8 05:58:29 10° W 06:05:04 65° S 06:30:24 10° ESE
Cosmos 1743 Rocket 3.8 06:01:00 10° N 06:04:46 63° NNE 06:04:46 63° NNE
Lacrosse 4 Rocket 4.0 06:04:32 10° NNE 06:05:48 11° NE 06:05:57 11° NE
Landsat 5 4.3 06:02:28 10° N 06:05:48 42° WNW 06:05:48 42° WNW
MOS 1 Rocket 4.3 06:13:27 39° WSW 06:14:06 41° W 06:19:02 10° NNW
Cosmos 614 Rocket 4.1 06:15:46 67° NE 06:15:46 67° NE 06:20:23 10° NNE
USA 59 Rocket 1.7 06:13:37 10° N 06:17:20 28° NE 06:17:27 28° ENE
Cosmos 1428 Rocket 4.3 06:17:16 74° SSE 06:17:49 82° E 06:23:57 10° N
Cosmos 1092 Rocket 3.9 06:22:39 67° ESE 06:22:52 68° E 06:29:08 10° NNE
USA 281 3.3 06:23:07 56° SSW 06:24:14 64° WSW 06:30:48 10° NNW
Cosmos 1302 Rocket 4.1 06:20:58 10° NNW 06:25:45 72° NNE 06:25:45 72° NNE
Terra 3.9 06:28:59 17° WSW 06:29:45 17° W 06:32:51 10° NW
IRIDIUM 104 4.4 06:26:30 10° N 06:31:10 69° NNE 06:31:10 69° NNE
Cosmos 2195 Rocket 4.4 06:36:02 73° SW 06:36:31 78° W 06:42:39 10° N
CZ-2C R/B 4.4 06:32:51 10° N 06:36:13 50° N 06:36:13 50° N
Cosmos 1818 4.0 06:40:38 54° NE 06:40:38 54° NE 06:44:53 10° NNE
IRIDIUM 114 4.5 06:35:39 10° N 06:40:18 71° NNW 06:40:18 71° NNW
ISS -0.6 06:40:51 10° NW 06:41:16 13° NW 06:41:16 13° NW
Cosmos 1151 Rocket 4.5 06:45:00 33° WNW 06:45:00 33° WNW 06:48:26 10° NNW
Cosmos 1833 Rocket 3.7 06:54:45 36° ENE 06:54:45 36° ENE 06:58:23 10° NE
ALOS 2 4.2 07:08:14 31° NNE 07:08:14 31° NNE 07:10:52 10° N
H-2A R/B 4.4 07:04:58 10° NE 07:06:13 16° NE 07:06:13 16° NE
Cosmos 1633 Rocket 4.5 07:05:35 10° NNW 07:08:17 36° NNW 07:08:17 36° NNW
Cosmos 1656 4.1 07:21:50 10° NNW 07:26:08 57° NNW 07:26:08 57° NNW
USA 267 3.2 07:32:30 10° NE 07:39:03 79° NW 07:39:36 73° W
S3M 4.2 07:37:26 10° N 07:43:29 66° ENE 07:43:29 66° ENE
Lacrosse 4 Rocket 3.7 07:40:26 10° NNW 07:41:51 21° NW 07:41:51 21° NW
Cosmos 2285 Rocket 4.0 07:51:06 76° N 07:51:06 76° N 07:56:54 10° NNE
Cosmos 1697 Rocket 3.2 07:47:45 10° NNW 07:52:32 56° NNE 07:52:32 56° NNE
Cosmos 1553 Rocket 4.5 07:47:43 10° NNW 07:52:56 50° WNW 07:52:56 50° WNW
Cosmos 1980 Rocket 3.4 07:55:16 10° N 08:00:25 34° ENE 08:00:53 33° ENE
COSMOS 2406 4.2 08:07:38 38° ENE 08:07:38 38° ENE 08:11:44 10° NE
USA 59 Rocket 2.5 08:02:44 10° NW 08:03:59 18° WNW 08:03:59 18° WNW
CZ-2C R/B 3.9 08:07:55 49° ENE 08:07:55 49° ENE 08:18:19 10° N
Cosmos 1607 4.4 08:10:57 54° WNW 08:11:21 55° NW 08:17:44 10° NNE
USA 234 4.4 08:06:02 10° E 08:12:01 39° NNE 08:17:59 10° NNW
Meteor 2-10 Rocket 4.3 08:09:51 10° N 08:15:04 54° ENE 08:15:04 54° ENE
Cosmos 1655 Rocket 4.1 08:18:52 74° NW 08:18:52 74° NW 08:24:52 10° N
Cosmos 2082 Rocket 2.4 08:36:05 67° N 08:36:05 67° N 08:41:03 10° NNE
Meteor 1-21 4.5 08:36:16 65° NE 08:36:16 65° NE 08:41:14 10° NNE
Cosmos 1833 Rocket 4.4 08:36:23 22° WNW 08:37:09 23° WNW 08:41:33 10° N
Meteor 2-20 4.4 08:34:20 10° N 08:40:17 79° NE 08:40:17 79° NE
H-2A R/B 4.1 08:40:33 10° NNW 08:43:01 23° NW 08:43:01 23° NW
BREEZE-M R/B 4.5 08:47:03 33° ESE 08:47:03 33° ESE 08:53:10 10° ENE
CZ-2D R/B 4.2 08:43:55 10° NE 08:47:23 17° E 08:47:51 17° E
DELTA 2 R/B (1) 4.1 08:49:50 51° ENE 08:49:50 51° ENE 08:54:00 10° E
Resurs 1-4 Rocket 3.7 08:56:54 10° NE 09:01:03 23° E 09:01:18 23° E
Cosmos 1953 4.2 08:58:38 10° NNE 09:00:54 27° NE 09:00:54 27° NE
Cosmos 676 Rocket 4.3 09:03:55 63° NNW 09:03:55 63° NNW 09:08:32 10° NNE
Cosmos 468 Rocket 4.2 09:05:30 10° NNW 09:10:03 66° N 09:10:03 66° N
CZ-2C R/B 4.4 09:15:09 18° ESE 09:17:43 26° ENE 09:21:55 10° NNE
Cosmos 1763 Rocket 4.4 09:14:24 10° NNW 09:18:00 38° WNW 09:18:00 38° WNW
Lacrosse 5 rocket 3.9 09:16:50 10° NNW 09:19:50 19° NE 09:22:44 10° E
Meteor 2-20 Rocket 4.5 09:13:58 10° NNW 09:20:27 70° W 09:20:41 69° WSW
Cosmos 2322 Rocket 4.1 09:25:51 10° N 09:30:37 27° ENE 09:35:22 10° ESE
MOZ.5/SAFIR/RUBIN 5/SL-8 4.0 09:31:01 70° NE 09:31:01 70° NE 09:35:24 10° N
Okean 1-7 4.2 09:33:00 36° NNW 09:33:00 36° NNW 09:35:54 10° N
Cosmos 1745 Rocket 3.8 09:31:52 72° S 09:32:35 90° E 09:38:52 10° N
Cosmos 1315 Rocket 4.1 09:36:04 37° N 09:36:04 37° N 09:38:33 10° N
Cosmos 540 Rocket 4.3 09:31:57 10° NNW 09:35:30 38° WNW 09:35:30 38° WNW
NPP 3.7 09:32:15 10° NNE 09:37:38 68° ESE 09:38:03 65° SE
ALOS 4.4 09:39:15 10° NE 09:42:12 17° E 09:43:48 14° ESE
SJ 16-02 2.3 09:43:39 37° E 09:43:39 37° E 09:47:26 10° NNE
NOSS 3-4 (A) 4.2 09:36:54 10° NW 09:43:49 47° WSW 09:43:55 47° WSW
NOSS 3-4 (C) 4.2 09:37:00 10° NW 09:43:55 47° WSW 09:44:04 47° WSW
Cosmos 1980 Rocket 3.5 09:39:19 10° NW 09:42:36 27° WNW 09:42:36 27° WNW
ADEOS II 3.0 09:42:27 10° NNE 09:47:20 39° E 09:48:35 34° SE
ATLAS CENTAUR R/B 4.3 09:39:44 10° NW 09:50:49 41° WSW 09:51:48 40° SW
IDEFIX/ARIANE 42P 2.4 09:46:30 10° NNE 09:51:47 87° WNW 09:52:14 75° SSW
Genesis I 4.3 09:53:59 38° NE 09:53:59 38° NE 09:56:18 10° NNE
USA 234 3.1 09:52:38 43° SSE 09:54:45 64° SW 10:01:16 10° NW
Cosmos 1455 4.0 09:52:29 10° NNW 09:53:52 22° NNW 09:53:52 22° NNW
Nadezhda 1 Rocket 4.1 09:53:45 10° NNW 10:00:04 63° W 10:01:13 53° SW
Cosmos 1782 Rocket 3.5 10:00:50 10° N 10:04:59 78° NW 10:04:59 78° NW
Cosmos 1850 Rocket 4.3 10:07:29 47° W 10:08:03 50° WNW 10:13:11 10° N
CZ-2C R/B 3.3 10:05:52 10° NNE 10:11:42 78° ESE 10:13:31 45° S
Cosmos 1741 Rocket 4.4 10:12:46 44° W 10:13:25 46° WNW 10:18:28 10° N
SL-16 R/B 2.1 10:09:49 10° NNW 10:15:31 81° WSW 10:17:48 38° SSE
SL-27 R/B 3.8 10:18:20 29° NNE 10:18:20 29° NNE 10:19:53 10° NNE
H-2A R/B 4.3 10:16:29 10° N 10:19:45 34° WNW 10:19:45 34° WNW
Cosmos 2082 Rocket 4.4 10:17:54 10° WNW 10:20:15 12° NW 10:22:37 10° NNW
Cosmos 1242 Rocket 4.3 10:22:16 18° NNW 10:22:16 18° NNW 10:23:19 10° NNW
AQUA 4.0 10:16:36 10° NNE 10:21:19 67° ESE 10:22:38 45° SSE
Cosmos 1825 4.4 10:20:53 13° ESE 10:22:28 17° E 10:24:43 10° NE
Cosmos 968 Rocket 3.6 10:21:56 48° WSW 10:22:46 54° WNW 10:27:47 10° N
CRYOSAT 2 4.3 10:20:57 10° N 10:25:51 77° W 10:27:00 52° SSW
CZ-2D R/B 2.4 10:22:22 10° N 10:27:43 56° WNW 10:29:09 43° WSW
Cosmos 2219 Rocket 4.0 10:22:52 10° N 10:27:50 31° ENE 10:32:47 10° ESE
Cosmos 1892 4.4 10:29:09 19° SE 10:30:35 26° E 10:33:32 10° NNE
OAO 3 Rocket 3.2 10:32:13 53° SW 10:32:56 59° S 10:37:44 10° ESE
Cosmos 1408 3.9 10:34:33 23° NW 10:34:33 23° NW 10:36:08 10° NNW
DELTA 2 R/B (1) 3.5 10:30:33 16° WNW 10:35:03 84° N 10:40:37 10° E
Cosmos 2237 4.5 10:30:33 10° NW 10:36:00 47° WSW 10:37:22 39° SW
Meteor 1-24 Rocket 3.8 10:33:42 34° S 10:36:28 86° W 10:42:31 10° N
Cosmos 841 Rocket 4.3 10:31:54 10° NW 10:36:14 31° W 10:36:14 31° W
Cosmos 2360 Rocket 2.4 10:31:25 10° NNW 10:37:05 73° ENE 10:42:44 10° SSE
Cosmos 2221 Rocket 4.4 10:35:30 24° SSE 10:37:57 48° E 10:42:19 10° NNE
Cosmos 2242 Rocket 4.2 10:38:01 38° W 10:38:23 39° WNW 10:42:34 10° N
SL-16 R/B 2.7 10:32:18 10° SSE 10:38:33 76° ENE 10:44:49 10° N
Tiangong -0.9 10:40:03 32° ESE 10:40:03 32° ESE 10:42:13 10° E
Resurs 1-4 Rocket 2.8 10:36:04 10° N 10:40:55 39° WNW 10:42:21 32° WSW
ATLAS 2AS CENTAUR R/B 4.2 10:34:46 10° NNW 10:40:59 36° NE 10:47:00 10° ESE
SL-4 R/B 2.0 10:41:18 53° SW 10:42:15 82° SE 10:46:42 10° NE
Cosmos 2181 Rocket 3.9 10:38:32 10° N 10:44:54 86° W 10:49:46 18° S
Sich 1 Rocket 4.4 10:43:46 10° N 10:48:09 50° E 10:52:26 10° SSE
Cosmos 2151 Rocket 4.1 10:45:46 10° N 10:50:11 58° E 10:54:17 12° SSE
FENGYUN 3A 3.9 10:47:34 10° N 10:52:48 54° WNW 10:55:07 31° SW
Cosmos 2098 Rocket 3.8 10:49:53 10° NNW 10:55:19 68° W 10:59:58 18° S
IRAS Rocket 4.1 10:51:23 10° NNE 10:56:53 79° WNW 11:00:04 26° SSW
SL-8 R/B 3.8 10:52:40 10° WNW 10:57:15 47° SW 11:01:50 10° SSE
CZ-2C R/B 3.2 10:56:38 31° WSW 10:57:46 34° W 11:02:27 10° NNW
Lacrosse 5 rocket 1.2 10:54:33 10° NW 10:58:28 54° SW 11:02:10 10° SSE
Cosmos 1674 Rocket 3.5 10:57:39 29° S 10:59:54 86° W 11:04:22 10° N
Okean 2 Rocket 3.2 10:58:35 10° N 11:02:58 75° E 11:07:20 10° SSE
Cosmos 1814 Rocket 4.1 11:00:38 10° NNW 11:05:42 53° WSW 11:09:51 15° S
Cosmos 405 Rocket 3.0 11:03:30 10° N 11:07:05 61° E 11:10:42 10° SSE
Cosmos 2333 Rocket 2.2 11:05:38 10° NNW 11:11:18 65° WSW 11:16:58 10° S
ATLAS CENTAUR R/B 1.8 11:11:08 21° S 11:13:00 41° ESE 11:16:20 10° NE
Cosmos 839 Rocket 4.0 11:07:35 10° NNW 11:14:28 85° WSW 11:20:35 10° SSE
Cosmos 2322 Rocket 2.6 11:09:29 10° NW 11:14:43 40° WSW 11:19:22 13° S
Cosmos 1378 Rocket 3.9 11:15:01 27° SW 11:16:55 43° W 11:21:02 10° N
Cosmos 2297 Rocket 4.0 11:14:11 10° SSE 11:18:53 28° ESE 11:23:34 10° NE
ALOS 2.8 11:15:12 10° N 11:19:34 42° WNW 11:22:06 22° SW
Cosmos 1295 Rocket 4.5 11:15:13 17° SSW 11:19:57 65° W 11:26:00 10° N
OAO 1 Rocket 4.5 11:17:11 21° WSW 11:20:42 64° S 11:25:56 10° E
Cosmos 1486 Rocket 4.1 11:16:34 16° S 11:20:48 78° ESE 11:26:01 10° NNE
SJ 16-02 3.1 11:20:24 14° W 11:21:55 17° WNW 11:24:45 10° NNW
Cosmos 1570 Rocket 4.0 11:19:20 10° NNW 11:24:40 90° WSW 11:30:00 10° SSE
Meteor 1-28 Rocket 4.3 11:25:43 22° WSW 11:26:12 23° W 11:29:04 10° NW
ADEOS II 3.4 11:22:35 10° NNW 11:26:42 24° WNW 11:29:28 16° WSW
Cosmos 2208 Rocket 4.3 11:23:00 10° NNW 11:28:17 73° ENE 11:33:28 10° SSE
Okean 1 Rocket 3.0 11:24:16 10° N 11:28:36 89° E 11:32:54 10° S
UNK 4.0 11:30:02 10° S 11:34:27 46° W 11:38:56 10° NNW
CZ-2C R/B 2.3 11:32:18 10° NNE 11:37:03 83° ESE 11:41:39 10° SSW
METEOR-M 4.2 11:32:48 10° N 11:38:07 68° WNW 11:43:24 10° SSW
COSMOS 2455 3.9 11:35:34 10° S 11:41:12 44° ESE 11:46:52 10° NE
IRS-1D 3.8 11:35:56 10° NNE 11:41:17 75° ESE 11:46:32 10° S
Envisat 3.1 11:36:45 10° N 11:41:45 61° WNW 11:46:43 10° SSW
Cosmos 158 Rocket 4.1 11:40:53 10° NNW 11:46:18 88° WSW 11:51:37 10° SSE
RESURS DK-1 3.1 11:43:35 10° NW 11:47:09 30° WSW 11:50:41 10° SSW
CZ-4C R/B 3.5 11:51:46 10° SSE 11:55:15 26° ESE 11:59:14 10° NE
Cosmos 1825 3.5 11:54:26 13° WSW 11:56:31 20° WNW 11:59:08 10° NNW
